Theta_e
322 313 321 326 328 328 330 330 330 330 336 335 334 331 330 331 335 337 335 339 340 331 320 317 315 314 313 314 316 315 315 314 313 313 313 313 313 313 314 317 319 322 326 327 328 327 326 329 331
320 315 327 328 330 333 330 327 328 337 337 335 335 335 334 337 336 335 340 340 339 324 321 317 316 315 313 313 316 316 315 314 314 314 314 315 315 316 317 318 321 325 329 331 331 331 331 331 331
316 320 320 328 330 328 329 331 337 339 337 338 337 334 332 336 336 336 337 339 336 325 321 318 317 316 314 313 316 316 316 315 315 315 316 316 317 318 319 320 323 329 332 334 334 334 334 334 333
323 326 323 327 332 331 331 332 334 337 336 337 336 334 330 333 336 336 338 339 336 325 322 320 318 317 316 313 316 317 317 316 316 316 317 318 319 319 321 322 323 326 334 336 337 337 336 336 335
326 322 325 327 329 330 330 331 332 337 337 336 335 334 330 332 336 336 337 338 336 327 322 320 320 319 319 316 315 317 317 317 317 317 318 319 320 321 321 321 323 329 335 337 338 337 338 338 337
323 321 325 328 328 328 328 327 333 337 337 336 335 333 330 333 337 336 337 336 335 333 325 321 320 320 318 318 314 316 317 318 318 318 318 319 320 321 323 323 323 327 332 338 338 338 336 335 334
330 324 325 326 327 327 328 327 330 332 335 332 330 332 330 330 335 337 336 336 335 335 332 323 320 319 319 319 318 315 317 318 318 318 319 319 320 322 323 324 324 324 329 335 336 335 332 329 327
328 326 327 324 327 327 327 327 327 329 331 330 330 331 332 329 332 335 337 336 336 336 336 331 324 319 319 319 319 317 316 318 318 319 319 320 321 322 323 324 324 323 327 330 330 330 328 326 326
329 331 327 325 326 326 325 328 328 329 330 330 330 329 329 333 333 332 332 332 338 339 338 336 330 323 320 319 319 319 316 316 318 319 320 321 324 323 325 324 324 325 329 332 330 328 329 330 329
332 335 333 325 325 324 325 325 327 330 330 331 330 330 331 332 331 330 329 328 330 335 339 338 338 331 325 321 322 319 319 317 317 319 321 322 324 324 324 325 326 331 334 335 334 331 331 331 329
333 337 335 333 328 326 326 327 328 329 330 330 331 330 329 329 328 327 327 327 328 326 332 338 337 338 335 328 327 327 324 323 320 320 321 323 325 326 326 326 332 335 336 337 336 333 331 331 331
328 332 333 332 330 330 330 329 329 328 329 328 328 329 329 329 327 326 326 328 329 329 327 331 337 338 338 336 332 330 332 328 327 326 323 325 327 327 326 328 337 338 337 335 336 334 331 331 332
325 327 327 326 326 329 329 329 329 329 329 328 327 326 326 326 326 328 329 329 330 329 328 328 334 337 338 339 337 336 335 331 328 332 328 326 326 326 326 335 339 337 335 335 335 333 332 332 331
318 321 324 324 323 322 324 326 326 327 326 326 326 325 324 324 324 326 327 328 328 328 328 329 330 333 338 340 339 338 338 336 333 332 329 328 328 327 331 339 339 335 334 335 334 333 333 333 332
317 317 318 319 319 321 323 324 325 325 325 326 326 325 324 324 324 324 327 328 328 328 329 327 327 330 337 340 340 340 340 339 337 335 333 333 332 330 336 339 337 335 337 335 334 334 333 333 331
318 319 320 320 321 321 322 324 325 325 325 326 325 326 326 325 324 326 328 327 328 329 328 327 327 328 333 339 341 342 342 341 340 339 338 340 337 336 339 340 335 336 336 335 334 333 332 332 331
315 322 323 323 322 322 322 324 324 324 325 325 325 325 325 325 324 324 326 327 328 329 328 328 329 330 334 339 340 342 342 342 341 341 341 340 339 339 341 337 335 335 335 335 334 334 333 331 331
318 319 321 323 324 323 324 323 323 323 324 324 324 324 325 325 325 325 326 328 327 327 329 329 331 336 338 341 343 342 343 343 344 344 343 341 341 341 334 334 335 334 335 335 335 333 332 331 330
317 320 322 323 323 323 323 324 323 323 322 322 323 323 323 324 324 325 325 325 327 330 335 332 336 341 342 343 345 344 342 338 337 336 335 335 336 333 334 335 335 335 335 335 333 332 332 330 330
313 315 316 316 316 320 323 323 323 323 323 323 323 324 323 321 323 324 324 329 333 336 337 338 341 344 345 345 344 342 340 337 336 335 334 333 334 334 335 336 336 335 335 334 332 332 331 330 329
313 313 315 316 316 315 315 316 317 318 318 319 320 322 322 322 322 323 324 332 335 338 339 342 345 346 347 346 344 343 339 336 335 335 334 334 335 336 336 336 335 333 333 332 332 331 330 329 328
313 314 314 314 314 315 315 316 316 317 318 318 318 320 318 320 322 322 323 332 336 339 342 345 346 347 347 345 344 343 339 336 336 335 335 334 335 336 336 335 333 331 332 332 331 330 330 329 328
311 314 315 315 315 314 315 314 316 317 318 318 318 319 320 321 320 322 326 334 337 339 340 344 347 346 345 344 342 339 338 337 336 335 335 336 336 335 335 334 333 332 332 330 330 329 329 329 328
308 312 313 314 313 316 315 315 316 316 316 317 320 321 320 319 319 325 332 336 337 339 341 344 344 342 343 340 338 337 336 335 334 335 335 335 334 334 334 333 332 332 331 331 329 329 329 329 328
306 306 311 313 316 317 315 315 317 316 317 316 317 319 319 319 328 336 337 336 337 339 341 342 340 340 339 337 336 335 334 334 334 334 334 334 334 333 332 333 332 331 330 331 330 329 330 329 328
304 305 310 313 317 317 316 317 316 316 316 317 317 319 320 318 333 336 337 337 338 339 339 339 339 337 338 336 336 335 334 333 334 333 334 334 334 332 331 331 331 330 330 330 329 329 329 329 329
309 306 306 310 312 313 316 316 317 317 317 317 317 319 319 323 335 336 335 337 338 338 338 339 337 337 336 335 335 334 333 333 334 333 332 334 332 331 331 330 329 329 330 329 328 328 328 330 329
310 311 308 308 314 315 316 318 318 317 317 317 317 317 325 335 336 336 337 337 338 337 338 339 337 337 335 334 333 332 333 334 334 332 333 332 332 331 330 331 330 331 329 329 328 329 329 329 329
313 313 310 308 310 315 315 316 316 317 316 317 320 320 336 337 337 336 337 337 337 337 338 337 337 337 335 334 333 333 332 333 332 332 333 332 332 331 331 331 331 330 331 330 329 329 328 328 328
313 314 313 309 309 313 315 315 316 315 315 318 320 336 337 337 336 337 337 336 336 336 337 337 337 337 335 333 332 333 333 332 332 334 333 330 331 330 331 331 330 330 330 331 329 329 327 326 327
Wind_Speed
6 3 3 2 2 3 3 6 4 9 3 5 3 6 6 2 5 4 8 29 22 31 35 33 29 26 25 22 20 19 17 16 15 14 13 12 10 9 7 8 8 7 6 5 4 4 3 3 3
5 6 1 1 3 1 4 4 6 3 6 11 10 5 5 1 2 8 13 26 26 32 35 34 31 27 26 24 22 21 19 18 16 14 13 12 11 9 9 9 8 7 6 6 6 6 5 5 5
6 3 2 3 3 5 4 4 2 2 2 4 2 2 6 3 2 14 7 30 28 31 34 34 31 29 28 26 24 23 21 20 18 17 16 14 12 11 10 10 9 9 8 8 8 8 7 7 7
5 2 3 2 7 7 6 6 6 3 5 2 0 4 3 5 10 18 22 31 30 31 34 34 33 32 31 30 28 27 25 23 21 20 18 16 14 12 11 10 9 10 10 10 10 10 10 9 9
1 2 1 3 6 8 4 8 13 5 3 6 1 2 3 1 19 25 31 33 32 32 34 35 35 36 36 35 33 31 30 28 26 23 21 19 16 15 12 10 9 10 11 11 12 11 10 11 13
1 2 1 5 6 10 3 9 5 4 5 6 3 4 4 13 28 31 34 32 30 31 36 37 36 36 36 35 35 33 32 31 29 27 24 22 19 16 14 12 10 10 11 12 13 12 12 14 14
3 2 4 4 6 11 3 6 4 11 10 2 3 7 1 5 26 34 35 34 33 31 34 37 38 37 37 37 37 36 34 32 30 28 26 23 20 18 16 13 11 10 11 12 13 14 14 14 14
4 3 4 4 4 10 3 5 4 7 7 4 6 4 4 8 17 29 32 34 34 33 33 37 38 40 41 40 39 38 36 35 33 31 28 24 22 20 18 16 15 12 12 12 14 14 14 14 14
6 2 5 6 5 8 7 14 15 9 5 1 6 7 8 16 17 17 19 22 32 32 35 37 39 41 43 42 42 39 38 37 34 33 31 27 25 23 21 19 16 16 14 14 15 14 15 15 15
5 7 8 8 7 6 14 7 22 7 10 8 4 4 16 20 17 13 9 12 21 33 39 38 39 40 43 44 44 44 42 40 39 37 34 32 29 25 22 19 17 18 18 17 17 14 14 13 15
7 11 13 15 12 11 16 15 14 14 13 8 3 6 9 8 6 12 16 18 12 14 31 39 41 43 45 45 44 43 44 43 42 40 37 35 31 27 24 20 18 18 18 20 20 18 17 16 14
9 13 16 18 17 16 18 14 18 16 14 11 10 7 5 8 9 9 12 20 19 20 17 25 36 44 47 45 46 46 44 45 44 44 40 37 33 29 25 22 20 19 21 21 22 19 18 17 16
19 10 11 13 15 18 18 20 20 22 20 15 9 9 9 9 10 18 25 26 25 21 21 21 28 37 46 47 45 43 44 45 46 43 42 38 34 32 25 22 20 17 18 20 21 20 19 18 18
3 7 17 13 15 16 18 21 19 21 18 18 16 13 11 10 10 14 19 24 26 27 20 19 23 32 41 44 45 47 44 44 43 42 41 39 36 30 24 21 21 19 17 19 20 19 19 20 20
10 12 15 19 8 8 7 21 25 21 16 18 11 9 10 11 13 12 25 23 28 25 24 23 22 27 35 39 43 44 42 40 39 37 33 33 34 29 27 24 19 18 17 18 21 19 16 18 20
4 5 17 15 16 8 6 32 16 7 8 14 14 17 21 15 13 25 33 27 25 22 24 23 22 24 31 35 38 40 40 39 34 33 31 29 28 29 27 24 18 15 15 19 18 17 17 18 20
6 17 19 19 7 4 14 37 14 11 14 17 13 16 14 16 14 23 34 28 22 26 27 21 22 27 32 33 34 37 37 33 30 29 30 27 27 28 28 22 17 15 15 17 18 18 18 18 19
12 20 19 18 6 14 19 32 21 20 23 22 23 24 23 23 18 23 33 27 28 27 27 18 24 29 28 28 24 29 27 24 24 27 27 26 27 28 23 22 13 14 16 18 18 17 18 18 17
7 17 8 5 11 14 19 23 18 16 9 13 18 17 18 19 16 23 30 28 17 19 17 20 24 27 27 29 26 26 26 24 23 24 23 20 26 23 24 18 14 17 19 21 20 19 17 17 14
13 15 14 9 9 8 13 22 23 22 18 19 21 19 18 8 10 12 13 13 22 24 20 20 24 25 26 30 29 26 25 21 19 18 19 20 23 22 21 17 16 17 18 19 17 15 15 14 13
16 18 14 10 10 22 13 12 17 20 13 16 13 13 10 10 14 14 8 18 21 23 23 24 23 25 25 25 23 19 18 17 16 17 16 17 19 20 19 18 15 15 16 16 13 15 15 11 14
19 9 12 15 11 16 7 17 21 22 25 21 14 15 10 14 12 9 7 7 20 21 21 22 24 23 25 25 24 24 22 12 14 16 15 15 17 18 15 14 12 13 13 12 11 11 13 12 13
20 11 13 14 10 16 17 7 29 7 18 12 14 10 16 17 10 14 10 13 17 26 25 23 27 26 27 25 24 23 19 15 15 15 13 16 14 12 12 12 11 10 11 9 9 10 13 16 12
5 9 12 16 3 11 9 10 28 16 22 18 7 14 12 9 10 1 8 18 20 24 26 28 29 27 27 23 19 19 19 15 16 17 16 13 10 9 11 13 10 7 8 8 9 11 13 15 16
5 2 2 3 7 15 11 9 23 7 5 10 14 16 12 12 6 9 14 13 17 21 27 30 29 23 23 24 20 17 16 18 19 16 13 10 8 8 7 9 9 7 7 8 9 11 12 12 14
6 9 5 7 4 8 7 12 16 16 26 21 22 18 14 8 9 11 14 14 17 22 27 25 27 24 25 23 21 19 16 14 12 11 9 6 6 6 8 9 8 5 5 6 7 8 10 10 11
5 9 7 5 14 1 6 9 18 23 24 21 19 12 13 7 11 13 11 12 19 20 25 30 28 26 25 23 19 14 13 12 11 7 4 5 6 8 10 8 6 7 7 6 6 7 8 8 8
8 3 4 3 6 8 6 6 10 7 14 10 12 16 7 8 11 12 13 13 18 22 28 28 26 25 23 20 16 13 12 11 8 6 6 8 9 11 10 8 8 7 8 8 7 6 6 7 7
1 4 5 4 3 8 6 9 8 12 10 12 17 10 16 16 15 14 13 16 19 22 26 27 26 24 22 19 16 15 12 13 10 7 8 10 12 9 10 10 10 8 8 7 6 6 8 9 11
6 9 5 5 11 5 11 16 9 9 10 8 10 9 14 18 17 15 15 13 18 21 23 26 26 25 23 21 16 14 13 12 10 9 9 11 11 11 9 11 10 8 8 6 6 8 10 10 11
Wind_Direction
241 248 161 105 66 80 248 251 276 289 276 185 173 11 148 112 154 193 169 173 179 173 177 177 179 177 172 169 163 162 160 158 155 152 152 154 155 153 156 161 165 166 167 173 200 215 228 244 263
185 146 113 76 120 189 258 242 228 226 313 17 352 47 360 49 103 120 130 181 178 175 177 179 181 180 178 174 172 171 168 168 162 161 162 164 165 164 169 177 181 179 183 192 217 227 228 238 252
152 142 101 142 198 206 207 199 297 224 209 343 52 252 146 226 50 144 196 178 178 177 180 181 182 183 182 182 179 178 178 175 172 173 175 173 172 174 179 185 190 190 197 212 228 239 241 244 251
153 44 2 172 233 267 229 310 293 350 340 231 102 271 326 226 149 178 171 178 177 180 184 185 186 187 187 188 187 185 185 184 183 183 185 183 182 183 186 191 198 201 205 216 226 235 241 248 250
136 71 233 254 244 253 350 275 281 242 159 262 137 90 1 357 156 172 175 177 180 183 188 191 192 192 192 193 192 191 191 190 190 190 192 193 191 192 192 197 207 213 215 225 233 239 247 249 250
351 111 111 239 252 269 231 262 205 285 274 301 274 84 231 157 153 171 178 181 187 188 193 197 197 198 196 197 197 197 198 198 197 196 198 199 198 200 201 206 209 218 224 227 239 246 246 253 254
138 85 227 258 283 298 219 280 262 242 228 17 135 130 277 256 174 177 184 187 192 198 196 198 201 202 203 203 204 203 204 204 205 205 205 204 203 205 212 216 222 225 233 235 243 248 253 256 258
153 112 265 253 238 277 339 354 307 1 288 8 152 141 199 240 199 180 189 193 197 202 206 202 203 204 206 207 209 208 207 209 209 210 213 213 208 210 217 222 229 229 234 243 246 251 258 259 261
142 156 236 232 210 252 67 307 298 342 269 260 173 163 186 198 202 208 202 186 206 207 211 210 204 205 209 210 213 212 213 213 214 216 215 217 216 215 220 228 237 239 237 245 248 250 258 262 265
164 201 230 214 237 300 313 319 303 347 323 300 23 357 300 302 184 204 221 236 208 211 214 216 210 209 212 213 215 213 214 215 216 217 216 217 219 220 226 232 241 243 248 248 246 249 258 263 261
202 215 226 261 259 266 283 286 267 289 283 269 284 288 273 317 265 214 216 218 229 220 216 219 219 216 216 213 215 215 216 216 219 219 217 219 219 221 225 233 238 242 253 243 239 244 249 255 257
256 216 221 251 257 263 262 274 280 266 259 241 253 242 228 232 253 255 230 236 242 249 219 214 216 218 219 216 217 215 213 215 219 221 219 220 218 221 224 232 233 239 245 243 239 242 248 253 250
247 244 224 238 258 254 264 264 262 278 281 273 270 269 231 239 249 252 243 249 250 248 249 211 208 217 221 218 216 215 215 217 221 222 221 221 220 222 223 227 233 233 238 243 236 237 243 247 252
263 255 258 246 245 254 257 264 264 269 273 285 279 271 267 262 243 254 260 255 257 253 251 217 207 215 217 217 218 218 218 221 221 224 226 224 224 222 220 221 225 236 241 246 230 231 242 244 245
263 277 281 258 237 249 290 276 254 259 273 272 270 273 274 263 256 239 258 260 274 260 215 216 218 217 216 218 219 219 219 218 217 222 223 223 222 219 214 216 226 239 235 221 223 230 230 235 232
280 249 247 247 243 246 200 258 256 255 255 271 280 283 280 263 252 265 263 266 273 239 218 225 214 217 220 218 216 214 217 217 217 218 219 219 215 212 209 215 224 224 215 216 219 227 238 237 241
225 244 242 249 231 229 204 258 255 236 251 265 270 267 273 278 268 261 263 260 243 218 226 231 215 216 218 217 215 212 213 214 217 217 216 214 212 209 213 217 220 227 228 226 234 234 238 250 251
222 225 235 245 222 234 242 264 265 269 267 267 267 268 268 269 261 258 260 243 228 229 232 233 212 212 208 203 199 207 210 209 211 217 213 208 204 203 216 217 228 228 235 241 235 240 252 247 250
257 242 269 209 209 233 244 264 267 253 247 262 266 265 258 256 252 252 251 240 231 231 213 205 202 202 197 186 161 157 161 159 170 176 180 191 199 208 206 213 221 228 233 241 256 254 243 239 227
252 267 268 293 284 256 246 253 264 264 261 252 257 258 251 247 260 254 253 201 192 189 191 192 194 189 188 184 175 166 159 164 170 175 189 195 201 206 210 219 225 231 239 243 252 242 241 229 206
233 237 253 260 305 290 296 282 284 276 259 261 269 256 267 251 259 261 190 202 179 176 183 183 182 177 177 176 170 155 155 159 175 187 190 197 203 205 209 210 231 251 251 257 255 239 226 201 204
248 247 244 251 259 260 212 277 265 268 265 265 245 252 247 246 250 249 211 169 181 174 164 164 169 166 161 165 164 166 169 170 197 207 213 215 203 198 206 226 243 251 244 245 250 233 227 214 208
253 253 236 237 235 248 250 293 267 260 261 250 253 250 254 260 236 244 187 182 167 161 156 153 155 161 160 164 167 169 171 184 197 183 189 177 186 206 233 249 247 237 240 234 229 219 216 218 216
318 242 240 258 226 251 214 202 272 246 251 251 224 241 252 262 260 190 138 139 143 153 152 152 153 155 160 162 160 169 160 156 147 154 154 166 185 215 236 241 246 225 222 226 227 226 229 228 227
221 58 249 253 213 236 170 208 235 256 272 230 237 249 252 247 161 164 147 147 145 143 148 154 152 148 155 154 153 152 133 137 143 151 154 175 210 223 225 223 213 216 227 229 225 232 222 224 222
188 180 194 192 205 241 261 230 244 231 260 267 264 245 252 257 169 164 159 149 143 145 146 154 155 142 149 145 135 131 133 137 142 154 163 192 208 214 204 188 193 209 206 203 207 211 210 215 217
305 220 201 292 273 275 228 274 279 276 277 274 267 256 247 182 159 152 139 140 143 145 146 153 149 141 140 138 135 136 131 140 137 149 178 202 193 182 173 172 177 165 165 175 185 192 196 211 219
198 246 188 198 207 240 252 251 236 232 248 273 268 256 181 140 142 142 140 136 142 145 148 153 153 144 142 143 143 148 150 147 155 163 187 181 168 168 173 174 167 176 173 178 187 194 200 199 198
240 217 193 160 211 221 257 251 196 253 244 274 283 242 157 155 154 146 140 140 141 143 146 154 155 151 149 152 160 165 160 161 157 167 172 174 177 183 181 178 169 186 179 177 186 182 170 157 147
268 282 175 214 234 248 241 247 304 252 287 293 294 175 159 154 151 144 144 141 145 147 150 158 160 159 161 168 174 170 151 151 152 157 167 174 179 182 176 176 168 174 177 176 178 179 179 170 163